Location: Unspecified
(0.0000°N, 0.0000°E)
Time: 18:21:46
(UTC+00:00)

Kosmos-1506 - Pass Details

Date: 05 June 2023
Orbit: 946 x 1007 km, 82.9° (Epoch: 26 September)

Event Time Altitude Azimuth Distance (km) Brightness Sun altitude
Rises 18:50:54 0° 29° (NNE) 3,633 8.4 -12.1°
Reaches altitude 10° 18:54:23 10° 49° (NE) 2,679 7.6 -12.9°
Maximum altitude 18:58:07 17° 87° (E) 2,218 6.8 -13.7°
Enters shadow 18:58:38 17° 93° (E) 2,227 6.8 -13.8°
